This demonstration page uses our WeatherBlox Daily Observations layout. Learn more.

Left ArrowRight Arrow

44.31136, -96.79839

Hourly Observations for December 3, 2022

Temp ( °F °C ) Dew Point ( °F °C ) Humidity (%) Winds ( mph kmh ) Pressure ( in mb ) Visibility ( mi km ) Precip ( " mm )
12:05 am 00:05 Partly Cloudy 3 -16 -2 -19 78 78 NW 24 39 30.43 1031 9 14 0.01 0.13
12:56 am 00:56 Mostly Cloudy 3 -16.1 -2 -18.9 79 79 WNW 15 24 30.41 1030 10 16 0.01 0.13
1:13 am 01:13 Partly Cloudy 3 -16 -4 -20 71 71 NW 14 22 30.46 1032 10 16 0.00 0.00
1:56 am 01:56 Mostly Clear 2 -16.7 -4 -20 75 75 WNW 15 24 30.43 1031 10 16 0.00 0.00
2:56 am 02:56 Clear 1 -17.2 -4 -20 79 79 WNW 14 22 30.47 1032 10 16 0.00 0.00
3:56 am 03:56 Clear 0 -17.8 -5 -20.6 79 79 W 7 11 30.48 1032 10 16 0.00 0.00
4:56 am 04:56 Clear -1 -18.3 -6 -21.1 78 78 WNW 8 13 30.50 1033 10 16 0.00 0.00
5:56 am 05:56 Clear -1 -18.3 -6 -21.1 78 78 WNW 9 15 30.53 1034 10 16 0.00 0.00
6:56 am 06:56 Clear -2 -18.9 -7 -21.7 78 78 W 8 13 30.54 1034 10 16 0.00 0.00
7:56 am 07:56 Sunny -1 -18.3 -6 -21.1 78 78 WSW 5 7 30.57 1035 10 16 0.00 0.00
8:56 am 08:56 Sunny 1 -17.2 -4 -20 79 79 WSW 9 15 30.59 1036 10 16 0.00 0.00
9:56 am 09:56 Sunny 7 -13.9 0 -17.8 72 72 WSW 10 17 30.57 1035 10 16 0.00 0.00
10:56 am 10:56 Sunny 12 -11.1 2 -16.7 63 63 SSW 10 17 30.55 1035 10 16 0.00 0.00
11:56 am 11:56 Sunny 15 -9.4 4 -15.6 60 60 SSW 14 22 30.52 1034 10 16 0.00 0.00
12:56 pm 12:56 Sunny 18 -7.8 6 -14.4 59 59 S 13 20 30.46 1031 10 16 0.00 0.00
1:56 pm 13:56 Sunny 22 -5.6 10 -12.2 60 60 S 14 22 30.40 1029 10 16 0.00 0.00
2:56 pm 14:56 Sunny 23 -5 11 -11.7 59 59 S 12 19 30.37 1028 10 16 0.00 0.00
3:56 pm 15:56 Sunny 23 -5 13 -10.6 65 65 S 15 24 30.37 1028 10 16 0.00 0.00
4:56 pm 16:56 Clear 20 -6.7 12 -11.1 71 71 S 10 17 30.36 1028 10 16 0.00 0.00
5:56 pm 17:56 Clear 18 -7.8 11 -11.7 73 73 SSW 9 15 30.35 1028 10 16 0.00 0.00
6:56 pm 18:56 Clear 16 -8.9 11 -11.7 80 80 S 3 6 30.35 1028 10 16 0.00 0.00
7:56 pm 19:56 Clear 16 -8.9 11 -11.7 80 80 SE 5 7 30.32 1027 10 16 0.00 0.00
8:56 pm 20:56 Clear 15 -9.4 10 -12.2 80 80 ESE 5 7 30.33 1027 10 16 0.00 0.00
9:56 pm 21:56 Clear 12 -11.1 8 -13.3 84 84 SE 7 11 30.32 1027 10 16 0.00 0.00
10:56 pm 22:56 Clear 10 -12.2 6 -14.4 84 84 Calm 30.31 1026 10 16 0.00 0.00
11:56 pm 23:56 Clear 10 -12.2 7 -13.9 87 87 NE 5 7 30.30 1026 10 16 0.00 0.00

Powered by AerisWeather